RH
32 29 21 20 21 22 22 20 20 20 19 19 20 19 18 17 12 17 22 22 14 11 16 18 16 24 25 23 19 18 26 27 21 28 37 64 67 72 66 63 62 71 72 83 93
40 34 32 22 20 24 23 22 21 21 19 20 21 20 18 16 15 21 19 19 18 17 18 18 16 21 22 24 20 19 26 20 18 42 54 61 66 64 61 60 75 98 90 100 98
62 44 38 31 21 23 24 23 22 20 20 22 22 21 18 16 18 23 21 19 20 16 15 19 16 17 21 21 20 18 22 18 43 44 52 58 63 58 63 62 61 97 98 97 99
76 65 46 39 29 22 26 24 22 21 21 23 23 22 18 16 29 23 24 20 18 16 17 20 22 24 26 25 16 16 15 25 37 49 49 59 62 64 58 58 56 69 85 95 99
86 81 70 47 40 25 24 24 23 22 24 25 25 23 19 21 10 13 22 22 20 19 16 18 21 23 23 21 21 17 41 44 45 46 49 45 50 49 61 75 59 85 85 93 91
92 92 84 70 46 36 22 23 22 23 29 27 27 25 22 36 13 21 24 24 25 24 18 16 20 22 23 24 26 34 40 39 42 42 44 41 48 46 72 83 89 78 78 83 83
63 89 90 82 64 45 27 21 21 24 32 30 29 25 22 11 11 24 23 22 25 27 25 23 23 22 22 25 25 34 41 42 41 38 32 36 45 51 60 76 70 68 50 82 74
64 81 83 87 78 54 38 20 20 23 33 30 30 25 18 8 10 19 20 20 26 26 24 25 25 22 23 22 22 28 36 46 35 31 31 31 43 49 52 73 82 74 49 93 72
45 55 79 83 85 65 46 21 19 21 30 31 29 28 20 20 20 16 20 19 22 21 20 23 22 22 24 30 31 29 35 39 40 31 30 32 39 53 54 72 82 88 79 76 92
15 34 84 79 92 77 52 22 18 25 38 48 40 40 11 20 23 22 17 22 20 22 24 23 25 32 32 34 41 34 32 31 36 29 35 34 34 63 56 70 77 90 86 78 68
8 30 82 72 95 88 54 20 32 58 62 41 25 17 12 19 22 21 20 17 20 23 31 26 33 34 28 29 28 32 35 35 30 28 38 42 37 44 64 64 72 84 88 78 56
6 26 75 69 99 94 61 25 41 63 57 33 29 39 33 38 39 22 20 19 25 31 33 32 35 29 28 31 32 34 39 40 35 29 34 40 38 33 56 56 64 71 84 71 62
6 19 79 76 98 93 61 35 73 65 58 41 34 37 26 27 36 25 21 20 25 33 36 37 32 29 31 35 34 35 38 41 39 26 28 30 34 39 53 49 54 67 57 60 45
9 13 85 83 90 80 51 74 62 45 64 46 57 39 31 27 28 21 20 20 27 32 36 36 32 32 34 35 34 40 32 37 34 26 36 24 41 39 48 50 50 56 62 59 50
52 19 91 90 91 52 67 68 57 65 46 24 44 33 29 21 18 20 19 20 30 33 34 30 37 36 37 32 31 36 31 30 29 35 35 35 36 33 36 52 48 46 51 50 51
96 40 92 98 100 65 67 59 63 84 68 36 36 38 30 21 19 20 20 18 20 32 32 29 27 32 30 27 30 28 32 40 47 47 46 36 39 40 42 35 40 40 42 44 44
99 58 94 97 98 81 64 60 92 90 35 40 39 30 34 29 21 21 20 24 28 32 33 28 29 24 27 30 28 32 40 52 54 62 50 40 44 42 30 29 33 38 39 42 43
98 88 89 95 100 84 55 92 97 60 54 41 26 29 27 28 26 28 23 26 21 25 36 37 38 27 23 26 29 42 38 57 44 55 46 41 49 38 30 31 33 25 34 42 53
98 97 97 95 100 91 89 94 75 60 44 28 26 30 30 28 27 24 28 27 24 25 30 42 37 40 37 30 28 40 46 43 56 56 61 48 37 31 36 42 43 58 44 50 52
99 90 89 90 100 100 97 79 66 53 47 49 36 31 37 34 31 30 33 25 22 25 23 34 35 39 38 32 30 31 42 54 66 47 43 41 40 40 34 37 50 55 62 51 54
99 94 78 86 100 98 92 73 60 46 43 57 55 43 34 34 33 35 30 24 25 25 26 40 36 34 39 39 37 41 42 40 49 54 54 61 47 37 38 38 44 53 48 50 58
99 94 77 78 98 90 80 63 52 46 41 50 54 55 47 33 35 35 33 26 20 33 32 39 45 47 38 32 33 31 36 42 60 42 61 63 51 27 38 38 39 36 41 51 54
91 82 83 84 91 90 68 62 56 46 48 52 56 50 45 34 30 36 35 26 28 35 41 44 49 54 42 35 39 43 38 41 51 60 58 71 53 29 30 32 29 38 39 42 52
88 92 98 98 69 65 71 72 71 54 54 51 56 50 48 42 31 33 37 37 36 32 29 32 49 43 54 39 34 36 32 33 43 70 50 59 39 30 31 31 30 29 32 39 44
91 72 77 90 88 77 61 63 72 66 55 51 55 58 55 54 36 36 45 42 39 39 38 39 45 40 39 33 31 30 32 36 41 41 48 41 47 36 33 30 26 20 28 38 50
90 78 72 78 70 78 64 63 67 62 56 58 54 52 45 56 44 40 48 46 43 40 39 44 44 34 41 40 39 38 36 34 37 33 43 40 40 34 27 25 26 26 28 28 38
96 74 68 69 74 75 66 60 58 51 54 45 45 50 48 52 42 33 30 35 37 46 49 48 61 62 49 48 46 61 49 39 35 34 34 39 36 29 31 36 40 31 27 32 41
Wind_Speed
13 14 14 14 15 16 17 18 19 19 21 22 23 25 25 23 18 11 5 7 2 5 4 3 3 1 4 2 6 6 4 3 5 3 4 4 2 2 2 2 3 3 6 18 19
14 14 15 14 15 15 16 17 18 18 20 22 22 23 23 21 12 4 6 6 3 4 3 3 2 1 3 1 2 4 4 7 5 3 4 4 4 2 2 1 5 11 15 24 21
16 15 15 15 15 15 15 17 17 19 19 21 22 21 20 17 8 1 5 6 3 2 3 1 1 2 2 3 6 6 5 6 6 11 3 6 5 5 3 3 6 16 26 26 21
18 17 17 17 17 16 16 16 17 18 19 21 21 19 17 12 2 2 3 3 2 2 2 4 4 2 1 4 5 2 14 6 6 6 6 7 9 2 6 4 1 16 25 24 22
19 18 18 18 18 18 17 16 16 17 19 20 20 17 16 9 8 6 3 1 2 1 1 2 1 1 1 5 7 2 2 3 10 10 5 8 4 3 3 8 10 25 23 23 22
21 20 18 18 18 18 19 17 17 17 18 20 18 15 14 6 4 6 4 2 1 2 2 2 3 7 7 5 3 1 9 5 7 10 11 6 1 4 6 15 19 24 22 17 26
23 21 19 19 19 19 19 18 18 18 18 19 17 15 18 18 6 9 8 6 6 6 6 5 7 4 7 5 7 9 5 5 1 4 4 12 4 1 16 18 21 19 19 25 30
24 23 21 19 19 20 20 18 18 19 18 18 15 14 12 7 11 13 9 8 9 8 8 10 11 9 4 4 4 5 4 1 5 2 5 3 3 4 19 21 21 22 24 25 37
25 24 22 21 20 21 21 19 18 19 19 16 13 8 12 5 7 13 12 10 7 10 10 5 5 5 1 3 4 2 3 1 6 3 2 4 3 5 19 21 21 23 29 30 36
24 24 21 20 19 20 21 20 17 17 15 14 13 8 11 2 3 7 18 15 8 2 2 1 0 2 3 3 2 2 3 2 4 4 2 2 1 4 23 21 23 26 27 32 33
23 23 21 19 18 19 19 15 10 5 8 10 3 8 11 10 7 5 11 16 11 4 3 2 5 1 3 5 5 3 4 4 6 6 5 7 5 8 19 12 15 22 27 32 35
23 22 20 18 18 18 16 11 6 3 12 19 25 30 28 25 9 8 8 9 7 5 1 3 3 5 1 4 1 3 3 7 9 7 8 6 5 3 9 15 28 31 30 36 36
25 22 19 17 17 18 15 8 9 13 7 15 19 19 28 17 11 14 8 11 5 6 5 6 5 4 3 2 5 5 4 6 9 2 2 5 0 6 6 9 18 25 37 39 39
26 22 20 16 16 17 12 1 6 4 2 6 5 8 15 10 6 21 10 11 2 9 6 5 3 3 2 5 4 4 4 7 5 2 3 2 3 5 8 12 9 23 30 39 41
22 21 23 19 10 9 6 4 3 3 3 4 4 3 17 19 3 11 21 14 8 6 6 6 4 5 6 10 6 7 5 4 2 1 3 1 3 5 7 9 15 20 31 37 43
22 20 24 23 26 17 7 6 7 3 7 4 8 7 7 7 2 3 12 11 6 5 2 5 3 6 6 1 5 3 2 5 5 2 2 2 4 4 6 16 17 22 30 39 41
23 21 30 28 26 17 16 3 2 5 5 4 5 6 6 6 3 2 6 6 6 4 4 0 3 2 2 2 1 4 5 3 4 4 4 1 2 8 7 5 9 19 33 38 45
24 21 31 33 26 12 10 3 8 6 7 5 2 5 7 5 5 6 5 6 2 4 3 5 5 4 1 3 3 3 5 5 3 3 4 2 4 6 3 13 7 22 31 36 41
25 26 30 38 29 20 7 10 7 6 4 4 3 5 4 4 6 3 7 7 8 8 7 5 4 3 2 1 5 1 1 1 5 3 2 3 6 9 7 4 4 7 16 28 37
29 28 36 39 31 23 5 17 7 6 5 4 8 6 8 7 6 7 7 4 5 10 7 7 1 2 2 2 2 3 7 3 2 3 3 4 4 5 7 5 3 4 14 24 30
28 14 17 39 31 18 11 11 15 23 7 3 3 2 7 8 9 5 7 5 7 4 5 5 5 4 1 5 7 2 2 1 4 4 4 1 5 6 7 6 7 11 21 25 29
28 7 22 44 14 9 14 8 9 21 19 4 4 4 4 7 7 9 10 8 10 11 9 6 6 6 9 3 4 4 7 6 4 4 2 4 6 4 9 8 9 10 16 23 27
18 21 29 44 13 14 8 14 12 10 7 7 5 5 4 4 3 7 8 8 8 9 9 7 1 2 6 4 2 5 5 4 4 4 6 5 6 3 6 8 17 16 16 22 29
16 8 16 33 39 20 20 16 21 20 14 4 3 4 2 3 3 4 6 2 7 11 11 14 4 7 7 8 3 3 4 5 5 3 4 6 6 6 8 7 10 20 23 24 29
22 13 17 12 25 18 21 16 23 15 19 23 5 8 2 3 2 4 3 2 2 8 5 4 6 5 4 4 4 4 4 5 6 6 6 7 7 9 8 8 16 20 24 23 28
21 10 21 5 27 24 20 22 26 22 9 9 11 7 13 10 7 5 6 4 5 2 5 1 4 3 3 2 3 3 6 5 4 3 6 6 6 7 6 7 6 11 18 25 28
33 27 22 16 19 21 27 22 24 21 23 23 22 13 10 13 16 22 16 7 7 10 6 6 6 4 5 1 3 5 8 8 6 6 6 6 9 2 2 4 6 6 6 7 14
Wind_Direction
300 305 306 310 307 306 308 311 315 320 321 323 327 330 328 328 335 332 355 341 340 194 221 235 260 223 338 202 206 190 79 238 260 217 250 148 154 153 3 300 10 56 143 154 156
295 300 305 308 311 308 308 310 314 317 320 321 327 331 328 330 340 35 21 357 295 249 250 251 203 289 343 284 180 134 138 218 211 234 244 158 109 138 240 280 77 79 137 151 159
290 296 300 305 310 309 306 308 314 315 319 320 326 330 327 330 326 50 32 20 350 274 192 308 1 10 351 278 209 184 204 207 211 217 181 119 164 197 198 270 196 154 142 154 163
284 291 296 302 307 309 306 308 312 313 316 318 324 328 325 324 240 207 6 10 16 254 179 91 83 92 4 268 229 186 240 176 199 150 130 148 145 183 204 356 101 156 152 149 153
275 283 291 299 304 308 306 305 308 311 315 316 321 326 324 306 264 241 293 41 109 239 178 163 1 128 236 272 295 240 26 125 151 149 130 134 199 190 40 32 152 159 154 148 146
267 275 284 292 297 305 307 305 304 307 311 313 316 320 313 286 181 179 200 184 338 291 242 242 326 317 279 267 359 263 96 95 148 182 166 143 187 357 84 121 127 151 145 156 169
266 266 278 287 294 300 304 303 301 302 306 309 308 311 296 261 215 196 209 214 242 265 277 322 338 305 303 321 10 125 56 15 1 195 216 132 42 231 135 140 132 120 139 178 167
264 266 269 281 288 295 300 302 297 297 300 300 299 303 270 261 217 215 224 223 252 260 274 286 314 290 251 317 42 61 50 105 255 232 253 136 226 208 149 142 146 152 165 167 171
260 262 267 274 285 292 298 303 297 295 290 285 288 289 267 230 250 223 227 230 265 302 271 282 264 261 282 72 36 20 121 235 321 68 329 49 179 182 177 161 157 174 183 186 185
259 261 261 266 281 291 300 306 301 291 278 268 257 286 253 173 295 227 218 233 262 301 118 218 359 42 37 84 156 4 51 297 241 292 75 342 284 205 183 178 178 177 187 191 196
254 252 256 264 277 290 303 321 311 278 260 233 262 243 272 291 290 216 210 229 228 211 144 9 64 248 245 163 141 92 291 308 280 234 171 219 211 208 198 205 193 189 186 194 198
248 245 247 259 275 285 299 303 326 343 301 270 260 257 257 265 295 224 180 186 162 187 107 21 223 192 345 117 58 342 298 288 290 276 172 180 214 178 187 204 199 197 196 200 205
244 239 236 247 269 277 284 303 300 263 271 285 250 239 239 235 226 234 181 185 155 184 181 179 238 122 126 242 210 249 231 271 239 19 340 121 115 150 224 193 211 210 201 201 201
240 234 225 232 262 267 268 13 315 169 309 268 229 238 180 161 230 225 191 175 169 194 142 225 231 185 170 247 155 299 263 243 281 142 196 164 254 237 182 194 196 208 205 205 204
234 225 214 216 225 239 170 4 156 131 328 232 186 172 166 169 157 206 208 214 171 182 121 246 183 174 207 229 146 229 262 263 188 168 107 316 110 262 142 204 215 205 209 211 207
229 218 207 217 232 216 224 334 154 67 249 286 148 157 144 202 231 120 164 186 199 136 194 219 202 162 226 322 189 172 160 37 44 55 35 262 139 277 185 214 214 206 209 208 209
223 217 205 214 229 230 245 222 136 212 313 227 179 153 181 174 208 157 144 163 156 112 212 75 234 224 161 316 62 98 64 345 359 15 221 335 57 241 249 214 217 205 211 203 203
215 215 210 212 216 219 219 172 211 218 253 309 159 108 183 154 230 182 147 187 232 116 129 174 304 181 149 193 199 71 141 157 227 211 265 21 233 256 223 296 250 230 211 206 196
211 215 217 211 208 206 211 212 197 212 224 252 70 131 235 207 158 152 182 187 196 176 156 142 268 309 243 248 151 188 22 110 98 11 50 256 291 311 332 65 46 123 187 192 198
208 215 220 206 202 202 220 221 203 221 360 345 204 175 179 202 159 154 178 205 216 188 166 197 182 198 295 32 358 160 155 62 17 185 226 282 286 242 303 292 168 185 174 194 202
200 212 224 202 203 181 214 209 223 252 290 319 322 297 210 176 180 177 198 238 201 185 141 138 127 266 114 182 200 141 190 153 127 147 171 215 265 223 257 245 227 207 207 202 202
191 210 188 192 186 207 215 193 234 243 253 298 301 254 234 196 176 188 199 208 195 153 163 202 150 187 207 182 164 187 193 146 129 238 181 163 269 261 246 243 245 239 210 207 206
194 201 184 186 199 210 189 204 227 230 203 209 241 219 357 212 176 192 201 222 176 155 161 181 198 80 343 16 49 224 193 168 119 84 198 149 258 294 275 248 254 249 232 211 208
184 184 173 192 210 200 188 194 214 238 251 276 294 291 248 277 250 191 198 192 171 181 212 141 137 165 193 211 176 197 201 170 142 126 204 221 267 282 248 243 267 245 240 224 215
192 208 185 193 207 205 187 193 196 217 205 204 260 231 229 315 267 191 152 134 12 143 109 126 163 158 222 180 188 213 239 178 184 211 163 243 203 257 251 253 255 260 243 229 220
186 205 186 224 195 202 192 201 199 212 172 200 220 189 219 221 214 231 153 182 185 198 142 216 182 133 140 106 62 243 244 252 239 210 254 250 255 228 295 275 311 281 234 220 224
205 211 199 202 186 188 209 197 201 207 216 232 209 220 223 226 227 248 242 223 196 159 169 146 136 117 226 87 64 330 217 219 235 220 190 218 230 276 51 65 36 16 230 240 230